• In Denmark
  • List of Countries
  • For 7 days
  • Water Temperature
  • Satellite Maps
  • Weather Map
  • Weather Widgets
  • user-avatar
    Login

    Hourly Weather Melbourne

    Today, 19 November, Sunday

    Time Temperature Precipitation Wind Pressure Humidity
    00:00 +19°C° 0 mm 1 mps 762 mmHg 91%
    01:00 +18°C° 0 mm 2 mps 762 mmHg 91%
    02:00 +18°C° 0 mm 2 mps 762 mmHg 90%
    03:00 +17°C° 0 mm 2 mps 763 mmHg 90%
    04:00 +18°C° 0 mm 1 mps 762 mmHg 92%
    05:00 +18°C° 0 mm 2 mps 763 mmHg 86%
    06:00 +19°C° 0 mm 2 mps 763 mmHg 81%
    07:00 +20°C° 0 mm 3 mps 763 mmHg 76%
    08:00 +22°C° 0 mm 3 mps 763 mmHg 67%
    09:00 +25°C° 0 mm 3 mps 763 mmHg 59%
    10:00 +28°C° 0 mm 2 mps 764 mmHg 49%
    11:00 +28°C° 0 mm 2 mps 764 mmHg 47%
    12:00 +29°C° 0 mm 2 mps 763 mmHg 45%
    13:00 +29°C° 0 mm 2 mps 763 mmHg 43%
    14:00 +29°C° 0 mm 2 mps 763 mmHg 45%
    15:00 +29°C° 0 mm 3 mps 763 mmHg 48%
    16:00 +28°C° 0 mm 3 mps 763 mmHg 53%
    17:00 +26°C° 0 mm 3 mps 763 mmHg 59%
    18:00 +25°C° 0 mm 3 mps 763 mmHg 66%
    19:00 +23°C° 0 mm 2 mps 763 mmHg 73%
    20:00 +21°C° 0 mm 2 mps 763 mmHg 76%
    21:00 +21°C° 0 mm 1 mps 764 mmHg 80%
    22:00 +20°C° 0 mm 1 mps 764 mmHg 83%
    23:00 +20°C° 0 mm 1 mps 764 mmHg 84%

    Tomorrow, 20 November, Monday

    Time Temperature Precipitation Wind Pressure Humidity
    00:00 +19°C° 0 mm 1 mps 764 mmHg 85%
    01:00 +17°C° 0 mm 0 mps 765 mmHg 86%
    02:00 +19°C° 0 mm 1 mps 765 mmHg 86%
    03:00 +19°C° 0 mm 1 mps 765 mmHg 86%
    04:00 +18°C° 0 mm 1 mps 765 mmHg 86%
    05:00 +19°C° 0 mm 2 mps 765 mmHg 79%
    06:00 +20°C° 0 mm 2 mps 765 mmHg 73%
    07:00 +21°C° 0 mm 3 mps 766 mmHg 66%
    08:00 +24°C° 0 mm 3 mps 766 mmHg 59%
    09:00 +26°C° 0 mm 3 mps 766 mmHg 52%
    10:00 +29°C° 0 mm 3 mps 766 mmHg 45%
    11:00 +30°C° 0 mm 2 mps 765 mmHg 42%
    12:00 +31°C° 0 mm 2 mps 765 mmHg 39%
    13:00 +32°C° 0 mm 1 mps 764 mmHg 36%
    14:00 +31°C° 0 mm 2 mps 764 mmHg 38%
    15:00 +31°C° 0 mm 2 mps 764 mmHg 39%
    16:00 +31°C° 0 mm 3 mps 763 mmHg 40%
    17:00 +29°C° 0 mm 3 mps 763 mmHg 47%
    18:00 +27°C° 0 mm 3 mps 764 mmHg 55%
    19:00 +25°C° 0 mm 3 mps 764 mmHg 62%
    20:00 +24°C° 0 mm 3 mps 764 mmHg 65%
    21:00 +23°C° 0 mm 2 mps 764 mmHg 68%
    22:00 +21°C° 0 mm 2 mps 765 mmHg 70%
    23:00 +20°C° 0 mm 2 mps 765 mmHg 70%

    Day after tomorrow, 21 November, Tuesday

    Time Temperature Precipitation Wind Pressure Humidity
    00:00 +21°C° 0 mm 1 mps 764 mmHg 71%
    01:00 +20°C° 0 mm 1 mps 764 mmHg 71%
    02:00 +20°C° 0 mm 1 mps 764 mmHg 71%
    03:00 +20°C° 0 mm 1 mps 764 mmHg 70%
    04:00 +19°C° 0 mm 2 mps 764 mmHg 70%
    05:00 +20°C° 0 mm 2 mps 764 mmHg 68%
    06:00 +21°C° 0 mm 2 mps 764 mmHg 66%
    07:00 +22°C° 0 mm 3 mps 764 mmHg 64%
    08:00 +25°C° 0 mm 3 mps 764 mmHg 57%
    09:00 +27°C° 0 mm 3 mps 764 mmHg 51%
    10:00 +29°C° 0 mm 3 mps 764 mmHg 44%
    11:00 +30°C° 0 mm 2 mps 764 mmHg 40%
    12:00 +31°C° 0 mm 2 mps 763 mmHg 36%
    13:00 +34°C° 0 mm 2 mps 763 mmHg 33%
    14:00 +32°C° 0 mm 2 mps 762 mmHg 35%
    15:00 +31°C° 0 mm 2 mps 762 mmHg 37%
    16:00 +31°C° 0 mm 2 mps 761 mmHg 39%
    17:00 +29°C° 0 mm 2 mps 762 mmHg 46%
    18:00 +27°C° 0 mm 3 mps 762 mmHg 52%
    19:00 +25°C° 0 mm 3 mps 762 mmHg 58%
    20:00 +25°C° 0 mm 2 mps 762 mmHg 60%
    21:00 +24°C° 0 mm 2 mps 762 mmHg 62%
    22:00 +23°C° 0 mm 2 mps 762 mmHg 64%
    23:00 +21°C° 0 mm 2 mps 762 mmHg 65%

    22 November, Wednesday

    Time Temperature Precipitation Wind Pressure Humidity
    00:00 +22°C° 0 mm 1 mps 762 mmHg 66%
    01:00 +21°C° 0 mm 1 mps 761 mmHg 67%
    02:00 +21°C° 0 mm 1 mps 761 mmHg 66%
    03:00 +21°C° 0 mm 1 mps 761 mmHg 66%
    04:00 +21°C° 0 mm 1 mps 761 mmHg 65%
    05:00 +21°C° 0 mm 2 mps 761 mmHg 63%
    06:00 +22°C° 0 mm 3 mps 762 mmHg 61%
    07:00 +22°C° 0 mm 3 mps 762 mmHg 59%
    08:00 +25°C° 0 mm 3 mps 762 mmHg 54%
    09:00 +27°C° 0 mm 3 mps 762 mmHg 48%
    10:00 +29°C° 0 mm 3 mps 762 mmHg 42%
    11:00 +30°C° 0 mm 3 mps 761 mmHg 39%
    12:00 +32°C° 0 mm 2 mps 760 mmHg 35%
    13:00 +34°C° 0 mm 2 mps 760 mmHg 32%
    14:00 +32°C° 0 mm 2 mps 759 mmHg 34%
    15:00 +31°C° 0 mm 2 mps 759 mmHg 37%
    16:00 +31°C° 0 mm 2 mps 758 mmHg 39%
    17:00 +29°C° 0 mm 2 mps 759 mmHg 43%
    18:00 +27°C° 0 mm 2 mps 759 mmHg 48%
    19:00 +26°C° 0 mm 2 mps 759 mmHg 52%
    20:00 +24°C° 0.1 mm 2 mps 759 mmHg 57%
    21:00 +23°C° 0.1 mm 2 mps 759 mmHg 61%
    22:00 +21°C° 0.1 mm 1 mps 759 mmHg 66%
    23:00 +21°C° 0 mm 1 mps 759 mmHg 67%

    23 November, Thursday

    Time Temperature Precipitation Wind Pressure Humidity
    00:00 +20°C° 0 mm 1 mps 758 mmHg 69%
    01:00 +20°C° 0 mm 1 mps 758 mmHg 71%
    02:00 +20°C° 0 mm 1 mps 758 mmHg 71%
    03:00 +19°C° 0 mm 1 mps 758 mmHg 72%
    04:00 +19°C° 0 mm 1 mps 758 mmHg 72%
    05:00 +19°C° 0 mm 2 mps 758 mmHg 69%
    06:00 +21°C° 0 mm 2 mps 759 mmHg 67%
    07:00 +22°C° 0 mm 3 mps 759 mmHg 64%
    08:00 +25°C° 0 mm 3 mps 759 mmHg 57%
    09:00 +27°C° 0 mm 3 mps 759 mmHg 51%
    10:00 +29°C° 0 mm 3 mps 759 mmHg 44%
    11:00 +30°C° 0 mm 3 mps 758 mmHg 39%
    12:00 +31°C° 0 mm 3 mps 758 mmHg 35%
    13:00 +34°C° 0 mm 2 mps 757 mmHg 31%
    14:00 +32°C° 0 mm 2 mps 757 mmHg 33%
    15:00 +31°C° 0 mm 2 mps 757 mmHg 35%
    16:00 +31°C° 0 mm 1 mps 756 mmHg 37%
    17:00 +29°C° 0 mm 1 mps 756 mmHg 42%
    18:00 +27°C° 0 mm 2 mps 757 mmHg 48%
    19:00 +26°C° 0 mm 2 mps 757 mmHg 53%
    20:00 +24°C° 0 mm 1 mps 757 mmHg 57%
    21:00 +23°C° 0 mm 1 mps 758 mmHg 61%
    22:00 +22°C° 0 mm 1 mps 758 mmHg 65%
    23:00 +22°C° 0.1 mm 1 mps 758 mmHg 66%

    24 November, Friday

    Time Temperature Precipitation Wind Pressure Humidity
    00:00 +21°C° 0.1 mm 1 mps 758 mmHg 68%
    01:00 +20°C° 0.1 mm 2 mps 758 mmHg 70%
    02:00 +20°C° 0 mm 2 mps 758 mmHg 69%
    03:00 +20°C° 0 mm 2 mps 758 mmHg 69%
    04:00 +20°C° 0 mm 2 mps 758 mmHg 68%
    05:00 +21°C° 0 mm 2 mps 758 mmHg 66%
    06:00 +23°C° 0 mm 2 mps 759 mmHg 64%
    07:00 +24°C° 0 mm 2 mps 759 mmHg 61%
    08:00 +26°C° 0 mm 2 mps 759 mmHg 54%
    09:00 +28°C° 0 mm 2 mps 759 mmHg 46%
    10:00 +31°C° 0 mm 3 mps 759 mmHg 38%
    11:00 +32°C° 0 mm 2 mps 759 mmHg 35%
    12:00 +34°C° 0 mm 2 mps 759 mmHg 31%
    13:00 +35°C° 0 mm 2 mps 758 mmHg 28%
    14:00 +32°C° 0.2 mm 2 mps 758 mmHg 34%
    15:00 +31°C° 0.2 mm 2 mps 758 mmHg 39%
    16:00 +29°C° 0.2 mm 2 mps 758 mmHg 45%
    17:00 +27°C° 0.8 mm 2 mps 758 mmHg 53%
    18:00 +26°C° 0.8 mm 2 mps 759 mmHg 62%
    19:00 +24°C° 0.8 mm 2 mps 759 mmHg 70%
    20:00 +23°C° 0.2 mm 2 mps 760 mmHg 74%
    21:00 +22°C° 0.2 mm 1 mps 760 mmHg 78%
    22:00 +21°C° 0.2 mm 1 mps 760 mmHg 83%
    23:00 +21°C° 0 mm 1 mps 760 mmHg 83%
    Show more